When you browse on this site, cookies collect data to enhance your experience and personalize the content and advertising you see.
Visit our Privacy Policy to learn more. By continuing to use the site, you agree to this use of cookies and data.
  • In Lithuania
  • List of Countries
  • For 7 days
  • Water Temperature
  • Satellite Maps
  • Weather Map
  • Weather Widgets
  • user-avatar
    Login

    Hourly Weather Barinas

    Today, 23 January, Wednesday

    Time Temperature Precipitation Wind Pressure Humidity
    00:00 +26°C° 0 mm 2 mps 745 mmHg 38%
    01:00 +26°C° 0 mm 2 mps 745 mmHg 36%
    02:00 +26°C° 0 mm 2 mps 745 mmHg 39%
    03:00 +26°C° 0 mm 2 mps 745 mmHg 42%
    04:00 +26°C° 0 mm 2 mps 745 mmHg 44%
    05:00 +26°C° 0 mm 2 mps 745 mmHg 47%
    06:00 +26°C° 0 mm 2 mps 746 mmHg 49%
    07:00 +26°C° 0 mm 2 mps 746 mmHg 52%
    08:00 +28°C° 0 mm 2 mps 746 mmHg 50%
    09:00 +29°C° 0 mm 3 mps 747 mmHg 48%
    10:00 +30°C° 0 mm 4 mps 747 mmHg 47%
    11:00 +33°C° 0 mm 4 mps 746 mmHg 43%
    12:00 +34°C° 0 mm 4 mps 745 mmHg 39%
    13:00 +36°C° 0 mm 4 mps 744 mmHg 36%
    14:00 +35°C° 0 mm 3 mps 743 mmHg 35%
    15:00 +35°C° 0 mm 3 mps 743 mmHg 34%
    16:00 +35°C° 0 mm 3 mps 742 mmHg 34%
    17:00 +33°C° 0 mm 3 mps 742 mmHg 36%
    18:00 +30°C° 0 mm 3 mps 742 mmHg 39%
    19:00 +28°C° 0 mm 3 mps 743 mmHg 41%
    20:00 +28°C° 0 mm 4 mps 743 mmHg 38%
    21:00 +28°C° 0 mm 4 mps 744 mmHg 35%
    22:00 +28°C° 0 mm 4 mps 744 mmHg 33%
    23:00 +28°C° 0 mm 3 mps 744 mmHg 36%

    Tomorrow, 24 January, Thursday

    Time Temperature Precipitation Wind Pressure Humidity
    00:00 +28°C° 0 mm 3 mps 744 mmHg 40%
    01:00 +27°C° 0 mm 3 mps 744 mmHg 44%
    02:00 +27°C° 0 mm 3 mps 744 mmHg 48%
    03:00 +26°C° 0 mm 3 mps 744 mmHg 51%
    04:00 +26°C° 0 mm 2 mps 744 mmHg 55%
    05:00 +26°C° 0 mm 2 mps 744 mmHg 56%
    06:00 +26°C° 0 mm 3 mps 745 mmHg 56%
    07:00 +26°C° 0 mm 3 mps 745 mmHg 57%
    08:00 +28°C° 0 mm 3 mps 746 mmHg 53%
    09:00 +30°C° 0 mm 3 mps 746 mmHg 49%
    10:00 +33°C° 0 mm 4 mps 746 mmHg 44%
    11:00 +34°C° 0 mm 4 mps 745 mmHg 41%
    12:00 +35°C° 0 mm 3 mps 744 mmHg 38%
    13:00 +36°C° 0 mm 3 mps 743 mmHg 34%
    14:00 +36°C° 0 mm 3 mps 742 mmHg 34%
    15:00 +36°C° 0 mm 3 mps 741 mmHg 33%
    16:00 +36°C° 0 mm 3 mps 741 mmHg 33%
    17:00 +34°C° 0 mm 2 mps 741 mmHg 36%
    18:00 +31°C° 0 mm 2 mps 742 mmHg 40%
    19:00 +29°C° 0 mm 2 mps 742 mmHg 43%
    20:00 +29°C° 0 mm 2 mps 743 mmHg 43%
    21:00 +28°C° 0 mm 2 mps 743 mmHg 43%
    22:00 +28°C° 0 mm 3 mps 744 mmHg 43%
    23:00 +28°C° 0 mm 3 mps 744 mmHg 45%

    Day after tomorrow, 25 January, Friday

    Time Temperature Precipitation Wind Pressure Humidity
    00:00 +27°C° 0 mm 3 mps 744 mmHg 48%
    01:00 +27°C° 0 mm 3 mps 744 mmHg 50%
    02:00 +27°C° 0 mm 3 mps 743 mmHg 52%
    03:00 +26°C° 0 mm 2 mps 743 mmHg 54%
    04:00 +26°C° 0 mm 2 mps 743 mmHg 56%
    05:00 +26°C° 0 mm 2 mps 744 mmHg 56%
    06:00 +26°C° 0 mm 2 mps 745 mmHg 56%
    07:00 +26°C° 0 mm 2 mps 745 mmHg 56%
    08:00 +28°C° 0 mm 3 mps 745 mmHg 54%
    09:00 +30°C° 0 mm 3 mps 746 mmHg 51%
    10:00 +32°C° 0 mm 4 mps 746 mmHg 49%
    11:00 +33°C° 0 mm 4 mps 745 mmHg 46%
    12:00 +34°C° 0 mm 3 mps 744 mmHg 43%
    13:00 +35°C° 0 mm 3 mps 743 mmHg 39%
    14:00 +36°C° 0 mm 3 mps 742 mmHg 38%
    15:00 +36°C° 0 mm 3 mps 741 mmHg 37%
    16:00 +36°C° 0 mm 3 mps 740 mmHg 35%
    17:00 +34°C° 0 mm 2 mps 741 mmHg 39%
    18:00 +31°C° 0 mm 2 mps 741 mmHg 44%
    19:00 +30°C° 0 mm 2 mps 741 mmHg 48%
    20:00 +29°C° 0 mm 2 mps 742 mmHg 50%
    21:00 +28°C° 0 mm 2 mps 742 mmHg 51%
    22:00 +28°C° 0 mm 2 mps 743 mmHg 53%
    23:00 +27°C° 0 mm 2 mps 743 mmHg 54%

    26 January, Saturday

    Time Temperature Precipitation Wind Pressure Humidity
    00:00 +27°C° 0 mm 2 mps 743 mmHg 54%
    01:00 +27°C° 0 mm 2 mps 743 mmHg 55%
    02:00 +27°C° 0 mm 2 mps 743 mmHg 55%
    03:00 +26°C° 0 mm 1 mps 743 mmHg 56%
    04:00 +26°C° 0 mm 1 mps 743 mmHg 57%
    05:00 +26°C° 0 mm 2 mps 743 mmHg 57%
    06:00 +26°C° 0 mm 2 mps 744 mmHg 57%
    07:00 +27°C° 0 mm 2 mps 745 mmHg 58%
    08:00 +28°C° 0 mm 3 mps 745 mmHg 54%
    09:00 +30°C° 0 mm 3 mps 745 mmHg 50%
    10:00 +33°C° 0 mm 4 mps 745 mmHg 46%
    11:00 +34°C° 0 mm 4 mps 744 mmHg 43%
    12:00 +35°C° 0 mm 3 mps 743 mmHg 41%
    13:00 +36°C° 0 mm 3 mps 742 mmHg 38%
    14:00 +36°C° 0 mm 3 mps 741 mmHg 37%
    15:00 +36°C° 0 mm 3 mps 741 mmHg 37%
    16:00 +36°C° 0 mm 2 mps 740 mmHg 36%
    17:00 +34°C° 0 mm 2 mps 740 mmHg 40%
    18:00 +32°C° 0 mm 2 mps 741 mmHg 44%
    19:00 +30°C° 0 mm 2 mps 741 mmHg 48%
    20:00 +29°C° 0 mm 2 mps 741 mmHg 49%
    21:00 +29°C° 0 mm 2 mps 742 mmHg 50%
    22:00 +28°C° 0 mm 2 mps 742 mmHg 51%
    23:00 +28°C° 0 mm 2 mps 742 mmHg 52%

    27 January, Sunday

    Time Temperature Precipitation Wind Pressure Humidity
    00:00 +27°C° 0 mm 2 mps 742 mmHg 54%
    01:00 +27°C° 0 mm 2 mps 742 mmHg 55%
    02:00 +27°C° 0 mm 2 mps 742 mmHg 56%
    03:00 +26°C° 0 mm 2 mps 742 mmHg 57%
    04:00 +26°C° 0 mm 1 mps 742 mmHg 58%
    05:00 +26°C° 0 mm 1 mps 742 mmHg 58%
    06:00 +26°C° 0 mm 1 mps 743 mmHg 59%
    07:00 +26°C° 0 mm 1 mps 743 mmHg 60%
    08:00 +28°C° 0 mm 2 mps 744 mmHg 55%
    09:00 +30°C° 0 mm 3 mps 744 mmHg 49%
    10:00 +33°C° 0 mm 3 mps 744 mmHg 44%
    11:00 +34°C° 0 mm 3 mps 743 mmHg 41%
    12:00 +36°C° 0 mm 3 mps 742 mmHg 38%
    13:00 +37°C° 0 mm 3 mps 741 mmHg 35%
    14:00 +37°C° 0 mm 3 mps 741 mmHg 34%
    15:00 +37°C° 0 mm 3 mps 740 mmHg 34%
    16:00 +37°C° 0 mm 3 mps 739 mmHg 33%
    17:00 +35°C° 0 mm 2 mps 740 mmHg 37%
    18:00 +32°C° 0 mm 2 mps 740 mmHg 41%
    19:00 +30°C° 0 mm 2 mps 740 mmHg 45%
    20:00 +30°C° 0 mm 2 mps 741 mmHg 47%
    21:00 +29°C° 0 mm 2 mps 741 mmHg 49%
    22:00 +28°C° 0 mm 2 mps 742 mmHg 51%
    23:00 +28°C° 0 mm 2 mps 742 mmHg 52%

    28 January, Monday

    Time Temperature Precipitation Wind Pressure Humidity
    00:00 +28°C° 0 mm 2 mps 742 mmHg 53%
    01:00 +27°C° 0 mm 2 mps 741 mmHg 55%
    02:00 +27°C° 0 mm 2 mps 741 mmHg 55%
    03:00 +26°C° 0 mm 1 mps 741 mmHg 56%
    04:00 +26°C° 0 mm 1 mps 741 mmHg 57%
    05:00 +26°C° 0 mm 1 mps 742 mmHg 58%
    06:00 +27°C° 0 mm 1 mps 743 mmHg 58%
    07:00 +27°C° 0 mm 1 mps 743 mmHg 58%
    08:00 +29°C° 0 mm 2 mps 743 mmHg 54%
    09:00 +30°C° 0 mm 3 mps 744 mmHg 49%
    10:00 +33°C° 0 mm 3 mps 744 mmHg 44%
    11:00 +35°C° 0 mm 3 mps 743 mmHg 41%
    12:00 +36°C° 0 mm 3 mps 742 mmHg 37%
    13:00 +38°C° 0 mm 3 mps 741 mmHg 34%
    14:00 +38°C° 0 mm 3 mps 740 mmHg 33%
    15:00 +38°C° 0 mm 3 mps 740 mmHg 32%
    16:00 +38°C° 0 mm 3 mps 739 mmHg 32%
    17:00 +36°C° 0 mm 2 mps 739 mmHg 36%
    18:00 +34°C° 0 mm 2 mps 740 mmHg 40%
    19:00 +31°C° 0 mm 2 mps 740 mmHg 45%
    20:00 +30°C° 0 mm 2 mps 741 mmHg 46%
    21:00 +30°C° 0 mm 2 mps 741 mmHg 48%
    22:00 +29°C° 0 mm 2 mps 742 mmHg 50%
    23:00 +29°C° 0 mm 2 mps 742 mmHg 50%
    Show more